When you browse on this site, cookies collect data to enhance your experience and personalize the content and advertising you see.
Visit our Privacy Policy to learn more. By continuing to use the site, you agree to this use of cookies and data.
  • In Hungary
  • List of Countries
  • For 7 days
  • Water Temperature
  • Weather Map
  • News
  • Weather Widgets
  • user-avatar
    Login

    Hourly Weather Irinovka

    Today, 25 January, Saturday

    Time Temperature Precipitation Wind Pressure Humidity
    00:00 -9°C° 0 mm 7 mps 739 mmHg 89%
    01:00 -8°C° 0.2 mm 7 mps 739 mmHg 90%
    02:00 -8°C° 0.2 mm 7 mps 739 mmHg 92%
    03:00 -7°C° 0.2 mm 7 mps 738 mmHg 94%
    04:00 -7°C° 0.2 mm 7 mps 737 mmHg 93%
    05:00 -6°C° 0.2 mm 7 mps 737 mmHg 92%
    06:00 -6°C° 0.2 mm 7 mps 736 mmHg 90%
    07:00 -4°C° 0 mm 7 mps 736 mmHg 91%
    08:00 -4°C° 0 mm 6 mps 736 mmHg 91%
    09:00 -3°C° 0 mm 6 mps 736 mmHg 91%
    10:00 -3°C° 0 mm 6 mps 736 mmHg 93%
    11:00 -3°C° 0 mm 6 mps 736 mmHg 96%
    12:00 -2°C° 0 mm 6 mps 736 mmHg 99%
    13:00 -2°C° 0.1 mm 6 mps 736 mmHg 98%
    14:00 -2°C° 0.1 mm 6 mps 736 mmHg 98%
    15:00 -2°C° 0 mm 6 mps 735 mmHg 98%
    16:00 -2°C° 0.1 mm 6 mps 735 mmHg 97%
    17:00 -2°C° 0.1 mm 7 mps 735 mmHg 96%
    18:00 -2°C° 0.1 mm 7 mps 735 mmHg 96%
    19:00 -2°C° 0.1 mm 7 mps 734 mmHg 96%
    20:00 -2°C° 0.1 mm 7 mps 734 mmHg 95%
    21:00 -3°C° 0.1 mm 7 mps 733 mmHg 95%
    22:00 -3°C° 0.1 mm 7 mps 733 mmHg 95%
    23:00 -4°C° 0.1 mm 8 mps 733 mmHg 95%

    Tomorrow, 26 January, Sunday

    Time Temperature Precipitation Wind Pressure Humidity
    00:00 -4°C° 0.1 mm 9 mps 732 mmHg 96%
    01:00 -5°C° 0.1 mm 9 mps 732 mmHg 91%
    02:00 -5°C° 0.1 mm 9 mps 732 mmHg 86%
    03:00 -6°C° 0.1 mm 9 mps 733 mmHg 81%
    04:00 -8°C° 0 mm 9 mps 733 mmHg 83%
    05:00 -8°C° 0 mm 9 mps 734 mmHg 84%
    06:00 -8°C° 0 mm 9 mps 735 mmHg 86%
    07:00 -8°C° 0 mm 9 mps 735 mmHg 86%
    08:00 -8°C° 0 mm 9 mps 736 mmHg 85%
    09:00 -8°C° 0 mm 9 mps 737 mmHg 85%
    10:00 -8°C° 0 mm 9 mps 738 mmHg 84%
    11:00 -8°C° 0 mm 9 mps 739 mmHg 83%
    12:00 -8°C° 0 mm 10 mps 740 mmHg 83%
    13:00 -8°C° 0 mm 9 mps 740 mmHg 83%
    14:00 -7°C° 0 mm 8 mps 741 mmHg 83%
    15:00 -7°C° 0 mm 7 mps 742 mmHg 83%
    16:00 -8°C° 0 mm 7 mps 743 mmHg 84%
    17:00 -8°C° 0 mm 7 mps 744 mmHg 84%
    18:00 -9°C° 0 mm 7 mps 745 mmHg 85%
    19:00 -9°C° 0 mm 6 mps 745 mmHg 86%
    20:00 -10°C° 0 mm 6 mps 745 mmHg 87%
    21:00 -10°C° 0 mm 5 mps 746 mmHg 88%
    22:00 -11°C° 0 mm 5 mps 746 mmHg 89%
    23:00 -10°C° 0 mm 4 mps 746 mmHg 91%

    Day after tomorrow, 27 January, Monday

    Time Temperature Precipitation Wind Pressure Humidity
    00:00 -10°C° 0 mm 4 mps 746 mmHg 92%
    01:00 -9°C° 0 mm 4 mps 745 mmHg 91%
    02:00 -10°C° 0 mm 5 mps 745 mmHg 90%
    03:00 -8°C° 0 mm 5 mps 745 mmHg 89%
    04:00 -9°C° 0 mm 6 mps 744 mmHg 89%
    05:00 -9°C° 0 mm 6 mps 743 mmHg 89%
    06:00 -8°C° 0 mm 7 mps 743 mmHg 89%
    07:00 -7°C° 0 mm 7 mps 743 mmHg 90%
    08:00 -6°C° 0 mm 8 mps 743 mmHg 90%
    09:00 -5°C° 0 mm 8 mps 742 mmHg 91%
    10:00 -5°C° 0 mm 8 mps 742 mmHg 91%
    11:00 -4°C° 0 mm 8 mps 743 mmHg 91%
    12:00 -2°C° 0 mm 8 mps 743 mmHg 91%
    13:00 -2°C° 0.1 mm 8 mps 743 mmHg 93%
    14:00 -2°C° 0.1 mm 7 mps 744 mmHg 95%
    15:00 -2°C° 0.1 mm 6 mps 744 mmHg 97%
    16:00 -2°C° 0 mm 5 mps 745 mmHg 93%
    17:00 -4°C° 0 mm 5 mps 746 mmHg 90%
    18:00 -4°C° 0 mm 4 mps 747 mmHg 86%
    19:00 -6°C° 0 mm 3 mps 747 mmHg 87%
    20:00 -8°C° 0 mm 3 mps 748 mmHg 87%
    21:00 -10°C° 0 mm 3 mps 749 mmHg 88%
    22:00 -9°C° 0 mm 2 mps 749 mmHg 86%
    23:00 -10°C° 0 mm 2 mps 750 mmHg 84%

    28 January, Tuesday

    Time Temperature Precipitation Wind Pressure Humidity
    00:00 -10°C° 0 mm 1 mps 750 mmHg 82%
    01:00 -10°C° 0 mm 1 mps 751 mmHg 82%
    02:00 -10°C° 0 mm 1 mps 751 mmHg 82%
    03:00 -10°C° 0 mm 1 mps 751 mmHg 82%
    04:00 -12°C° 0 mm 2 mps 751 mmHg 84%
    05:00 -10°C° 0 mm 2 mps 752 mmHg 86%
    06:00 -12°C° 0 mm 3 mps 752 mmHg 88%
    07:00 -12°C° 0.3 mm 4 mps 752 mmHg 90%
    08:00 -12°C° 0.3 mm 4 mps 752 mmHg 92%
    09:00 -13°C° 0.3 mm 5 mps 752 mmHg 94%
    10:00 -12°C° 0.3 mm 5 mps 752 mmHg 94%
    11:00 -12°C° 0.3 mm 5 mps 752 mmHg 94%
    12:00 -11°C° 0.3 mm 5 mps 752 mmHg 94%
    13:00 -11°C° 0.2 mm 5 mps 751 mmHg 94%
    14:00 -11°C° 0.2 mm 5 mps 751 mmHg 94%
    15:00 -11°C° 0.2 mm 5 mps 751 mmHg 94%
    16:00 -9°C° 0.1 mm 4 mps 751 mmHg 95%
    17:00 -9°C° 0.1 mm 4 mps 751 mmHg 95%
    18:00 -9°C° 0.1 mm 4 mps 751 mmHg 95%
    19:00 -9°C° 0.1 mm 4 mps 751 mmHg 95%
    20:00 -8°C° 0.1 mm 4 mps 751 mmHg 96%
    21:00 -8°C° 0.1 mm 4 mps 751 mmHg 96%
    22:00 -7°C° 0.3 mm 4 mps 751 mmHg 96%
    23:00 -7°C° 0.3 mm 4 mps 751 mmHg 96%

    29 January, Wednesday

    Time Temperature Precipitation Wind Pressure Humidity
    00:00 -5°C° 0.3 mm 4 mps 751 mmHg 96%
    01:00 -5°C° 0.2 mm 4 mps 750 mmHg 96%
    02:00 -5°C° 0.2 mm 4 mps 750 mmHg 96%
    03:00 -4°C° 0.2 mm 4 mps 750 mmHg 96%
    04:00 -5°C° 0.3 mm 4 mps 750 mmHg 96%
    05:00 -5°C° 0.3 mm 4 mps 750 mmHg 96%
    06:00 -5°C° 0.3 mm 4 mps 750 mmHg 96%
    07:00 -5°C° 0.4 mm 4 mps 750 mmHg 96%
    08:00 -5°C° 0.4 mm 4 mps 750 mmHg 96%
    09:00 -6°C° 0.4 mm 5 mps 750 mmHg 96%
    10:00 -6°C° 0.3 mm 5 mps 750 mmHg 96%
    11:00 -4°C° 0.3 mm 4 mps 750 mmHg 96%
    12:00 -4°C° 0.3 mm 4 mps 749 mmHg 97%
    13:00 -4°C° 0.2 mm 4 mps 749 mmHg 97%
    14:00 -4°C° 0.2 mm 4 mps 749 mmHg 97%
    15:00 -4°C° 0.2 mm 4 mps 749 mmHg 97%
    16:00 -4°C° 0.3 mm 4 mps 749 mmHg 96%
    17:00 -5°C° 0.3 mm 4 mps 749 mmHg 96%
    18:00 -7°C° 0.3 mm 4 mps 749 mmHg 96%
    19:00 -7°C° 0.2 mm 4 mps 748 mmHg 96%
    20:00 -7°C° 0.2 mm 4 mps 748 mmHg 96%
    21:00 -7°C° 0.2 mm 4 mps 748 mmHg 96%
    22:00 -5°C° 0.4 mm 4 mps 747 mmHg 96%
    23:00 -4°C° 0.4 mm 4 mps 747 mmHg 97%

    30 January, Thursday

    Time Temperature Precipitation Wind Pressure Humidity
    00:00 -4°C° 0.4 mm 4 mps 747 mmHg 97%
    01:00 -4°C° 0.3 mm 5 mps 747 mmHg 97%
    02:00 -4°C° 0.3 mm 5 mps 746 mmHg 98%
    03:00 -3°C° 0.3 mm 6 mps 746 mmHg 98%
    04:00 -3°C° 0.7 mm 6 mps 746 mmHg 98%
    05:00 -3°C° 0.7 mm 6 mps 746 mmHg 98%
    06:00 -4°C° 0.7 mm 6 mps 745 mmHg 98%
    07:00 -3°C° 0.3 mm 6 mps 745 mmHg 97%
    08:00 -3°C° 0.3 mm 7 mps 745 mmHg 96%
    09:00 -3°C° 0.3 mm 7 mps 745 mmHg 96%
    10:00 -3°C° 0.1 mm 7 mps 745 mmHg 96%
    11:00 -3°C° 0.1 mm 7 mps 745 mmHg 97%
    12:00 -3°C° 0.1 mm 7 mps 745 mmHg 97%
    13:00 -3°C° 0.5 mm 6 mps 746 mmHg 98%
    14:00 -3°C° 0.5 mm 6 mps 746 mmHg 98%
    15:00 -3°C° 0.5 mm 6 mps 746 mmHg 98%
    16:00 -3°C° 0.2 mm 6 mps 746 mmHg 98%
    17:00 -2°C° 0.2 mm 5 mps 746 mmHg 97%
    18:00 -2°C° 0.2 mm 5 mps 746 mmHg 97%
    19:00 -2°C° 0.3 mm 5 mps 746 mmHg 97%
    20:00 -3°C° 0.3 mm 4 mps 746 mmHg 97%
    21:00 -3°C° 0.3 mm 4 mps 746 mmHg 97%
    22:00 -3°C° 0.2 mm 4 mps 746 mmHg 97%
    23:00 -3°C° 0.2 mm 4 mps 746 mmHg 97%
    Show more